Regional Weather Roundup
Issued by NWS Columbia, SC

Home | Current Version | Previous Version | Text Only | Print | Product List | Glossary On
Versions: 1 2 3 4 5 6 7 8 9 10 11 12 13 14 15 16 17 18 19 20 21 22 23 24 25 26 27
000
ASUS42 KCAE 250010
RWRCAE
REGIONAL WEATHER ROUNDUP
NATIONAL WEATHER SERVICE COLUMBIA SC
800 PM EDT SUN JUL 24 2016

NOTE: "FAIR" INDICATES FEW OR NO CLOUDS BELOW 12,000 FEET WITH NO
SIGNIFICANT WEATHER AND/OR OBSTRUCTIONS TO VISIBILITY.

NOT ALL STATIONS ARE QUALITY CONTROLLED BY THE NATIONAL
WEATHER SERVICE. USE DATA WITH CAUTION...ESPECIALLY
DEWPOINT OBSERVATIONS.

SCZ001>056-GAZ040-063>065-077-250100-
...UPSTATE SOUTH CAROLINA...

CITY           SKY/WX    TMP DP  RH WIND       PRES   REMARKS
ANDERSON       CLEAR     92  67  43 SW6       30.00R HX  95
6HR MIN TEMP:  92; 6HR MAX TEMP:  97;

LIBERTY        CLEAR     86  77  74 CALM      30.00S HX  97
6HR MIN TEMP:  86; 6HR MAX TEMP:  96;

SPARTANBURG    CLEAR     90  70  51 CALM      30.00R HX  95
CLEMSON        CLEAR     92  68  45 SW3       30.02R HX  96
6HR MIN TEMP:  92; 6HR MAX TEMP:  98;

GREENVILLE     CLEAR     93  65  39 SW7       30.02R HX  95
6HR MIN TEMP:  93; 6HR MAX TEMP:  97;

GREENWOOD      CLEAR     88  74  63 CALM      30.01R HX  96
6HR MIN TEMP:  88; 6HR MAX TEMP:  96;

GREER          CLOUDY    89  69  51 S5        30.00R
6HR MIN TEMP:  89; 6HR MAX TEMP:  96;

ROCK HILL      CLEAR     89  73  59 S3        30.01R HX  97
6HR MIN TEMP:  89; 6HR MAX TEMP:  96;

CHESTER        PTCLDY    86  72  62 CALM      30.01R
LAURENS        CLEAR     90  72  55 S6        30.00R HX  96


...CENTRAL SOUTH CAROLINA...

CITY           SKY/WX    TMP DP  RH WIND       PRES   REMARKS
COLUMBIA APT   PTCLDY    93  71  48 SE12      29.98R HX 100
6HR MIN TEMP:  85; 6HR MAX TEMP:  98; 6HR PCP:  0.23;

COLUMBIA OWENS PTCLDY    89  73  59 S6          N/A  HX  97
6HR MIN TEMP:  89; 6HR MAX TEMP:  97;

MCENTIRE ANGB  PTCLDY    85  74  68 SE5       30.00R
6HR MIN TEMP:  81; 6HR MAX TEMP:  98; 6HR PCP:  0.16;

ORANGEBURG     PTCLDY    88  75  65 SE8       30.01R HX  97
6HR MIN TEMP:  88; 6HR MAX TEMP:  96;

SUMTER SHAW    CLEAR     88  74  63 S7        29.97S HAZE    HX  96
6HR MIN TEMP:  88; 6HR MAX TEMP:  97;

NEWBERRY       CLEAR     88  73  62 S3        30.02S HX  96
AIKEN          FAIR      81  72  74 SE6       30.04R
MANNING        FAIR      86  75  70 S3        30.01R HX  95
LANCASTER      PTCLDY    90  68  48 CALM      30.00R
WINNSBORO      CLEAR     91  72  52 S3        29.99  HX  98


...EASTERN AND COASTAL SOUTH CAROLINA...

CITY           SKY/WX    TMP DP  RH WIND       PRES   REMARKS
MYRTLE BEACH   CLEAR     86  72  62 S12       30.03R
N MYRTLE BCH   CLEAR     85  79  82 S10       30.01S HX  98
6HR MIN TEMP:  85; 6HR MAX TEMP:  89;

CONWAY         FAIR      84  75  74 SW3       30.01S
MARION           N/A     86  73  66 S6        30.00S
HARTSVILLE     FAIR      86  72  62 S5        29.99R
FLORENCE       CLEAR     88  76  67 S9        30.00R HX  99
6HR MIN TEMP:  88; 6HR MAX TEMP:  96;

CHARLESTON APT PTCLDY    85  76  74 S8        30.02R
6HR MIN TEMP:  78; 6HR MAX TEMP:  94; 6HR PCP:  0.23;

MOUNT PLEASANT FAIR      84  79  84 S7        30.03R HX  96
WALTERBORO     CLOUDY    88  77  70 SE9       30.02R HX 100
BEAUFORT       PTCLDY    87  74  64 S5        30.02R HX  95
6HR MIN TEMP:  87; 6HR MAX TEMP:  98; 6HR PCP: TRACE;



...EASTERN GEORGIA...

CITY           SKY/WX    TMP DP  RH WIND       PRES   REMARKS
AUGUSTA BUSH F CLEAR     89  74  60 SE5       29.98R HX  98
6HR MIN TEMP:  89; 6HR MAX TEMP:  99;

AUGUSTA DANIEL CLEAR     93  70  46 S6        30.00R HX  99
6HR MIN TEMP:  93; 6HR MAX TEMP:  98;

WASHINGTON     FAIR      91  75  59 S6        30.00R HX 102
CLAXTON        FAIR      85  74  68 CALM      30.01R
6HR MIN TEMP:  85; 6HR MAX TEMP:  98;

STATESBORO     CLEAR     87  72  61 S5        30.02R
6HR MIN TEMP:  87; 6HR MAX TEMP:  98;

SAVANNAH       PTCLDY    87  72  60 S8        30.02R
6HR MIN TEMP:  77; 6HR MAX TEMP:  99; 6HR PCP:  0.79;



...SOUTHERN NORTH CAROLINA...

CITY           SKY/WX    TMP DP  RH WIND       PRES   REMARKS
CHARLOTTE      CLOUDY    90  69  50 SW3       30.00S
6HR MIN TEMP:  90; 6HR MAX TEMP:  97;

MONROE         CLEAR     90  69  50 CALM      30.00R
6HR MIN TEMP:  90; 6HR MAX TEMP:  97;

WADESBORO      PTCLDY    87  73  64 CALM      29.99S
ROCKINGHAM     CLEAR     89  77  67 S3        29.99S HX 101
RUTHERFORDTON    N/A     88  73  60 CALM      30.03R HX  95
ASHEVILLE      PTCLDY    85  66  53 CALM      30.10R
6HR MIN TEMP:  85; 6HR MAX TEMP:  90;


$$




USA.gov is the U.S. government's official web portal to all federal, state and local government web resources and services.